Regional Weather Roundup
Issued by NWS

Home | Current Version | Previous Version | Graphics & Text | Print | Product List | Glossary On
Versions: 1 2 3 4 5 6 7 8 9 10 11 12 13 14 15 16 17 18 19 20 21 22 23 24 25 26 27 28 29 30 31 32 33 34 35 36 37 38 39 40 41 42 43 44 45 46 47 48 49 50
000
ASUS43 KDTX 231001
RWRMI
MICHIGAN HOURLY REGIONAL WEATHER ROUNDUP
NATIONAL WEATHER SERVICE DETROIT/PONTIAC MI
500 AM EST THU FEB 23 2017

NOTE: "FAIR" INDICATES FEW OR NO CLOUDS BELOW 12,000 FEET WITH NO
SIGNIFICANT WEATHER AND/OR OBSTRUCTION TO VISIBILITY.

MIZ047>049-052>055-059>063-066>070-074>076-081>083-231100-
SOUTHEAST LOWER MICHIGAN

CITY           SKY/WX    TMP DP  RH WIND       PRES   REMARKS
ADRIAN         MOCLDY    54  53  97 W7        29.67R
ALMA           CLOUDY    56  51  80 SW15G29   29.59R
ANN ARBOR      CLOUDY    56  54  93 S10       29.65R
BAD AXE        CLOUDY    57  53  84 SW12G17   29.56S
CARO           CLOUDY    58  53  83 SW17      29.56S
DETROIT CITY   CLOUDY    56  54  93 SW9       29.64S
DETROIT        MOCLDY    58  54  86 SW17G26   29.66R FOG
FLINT          CLOUDY    58  53  84 SW10      29.60R
GROSSE ILE     MOCLDY    47  46  99 S10       29.65S FOG
HILLSDALE      CLOUDY    54  52  94 SW9       29.66S
HOWELL         CLOUDY    58  51  78 SW12      29.62R

CITY           SKY/WX    TMP DP  RH WIND       PRES   REMARKS
JACKSON        CLOUDY    58  52  80 SW17G23   29.64R
LAMBERTVILLE   CLEAR     59  54  82 SW10G18   29.67R
LANSING        MOCLDY    57  51  80 SW13      29.62R
LAPEER         CLOUDY    57  52  83 SW12      29.60R
MASON          CLOUDY    58  53  84 SW8G16    29.63R
MONROE         CLEAR     58  55  89 SW15G21   29.66R
MT. CLEMENS    MOCLDY    56  56 100 S13       29.61S
PONTIAC        CLOUDY    57  52  83 SW14G21   29.61S
PORT HOPE        N/A     57  52  83 SW8       29.52S
PORT HURON     CLOUDY    54  52  94 S9        29.62S FOG
TRI CITIES     CLOUDY    57  53  86 SW13      29.57R
MIDLAND        CLOUDY    58  49  73 SW9       29.55R
TROY           CLOUDY    58  53  85 SW12G17   29.65S
SAGINAW HB     CLOUDY    57  50  77 SW13G22   29.56R
$$
MIZ043>046-050>051-056>058-064>065-071>073-077>080-231100-
SOUTHWEST LOWER MICHIGAN

CITY           SKY/WX    TMP DP  RH WIND       PRES   REMARKS
BATTLE CREEK   CLOUDY    57  53  86 W13       29.65R
BENTON HARBOR  PTCLDY    48  45  89 W15       29.68R FOG
BIG RAPIDS     CLEAR     50  46  85 W14G20    29.58R
COLDWATER      CLOUDY    57  54  88 W13G21    29.66R
FREMONT        FAIR      47  46  94 W6        29.62R
HOLLAND        CLEAR     49  45  86 W12       29.65R
GRAND RAPIDS   CLEAR     52  48  86 W13       29.63R
IONIA          FAIR      54  49  84 W17G25    29.61R
KALAMAZOO      MOCLDY    56  50  80 W9        29.66R
LUDINGTON      FOG       39  39 100 N8        29.62R VSB 1/2 WCI  33
MARSHALL       CLOUDY    56  54  91 SW12G18   29.65R
MOUNT PLEASANT CLOUDY    56  50  79 W13G20    29.56R
MUSKEGON       CLEAR     46  42  86 W6        29.64R
SOUTH HAVEN    PTCLDY    49  47  92 W9        29.68R
$$
MIZ016>042-231100-
NORTHERN LOWER MICHIGAN

CITY           SKY/WX    TMP DP  RH WIND       PRES   REMARKS
ALPENA         CLOUDY    46  46 100 CALM      29.48F FOG
BEAVER ISLAND  CLOUDY    36  36 100 NW7       29.58R FOG     WCI  30
BELLAIRE       CLOUDY    40  39  99 NW3       29.58R FOG
CADILLAC       PTCLDY    48  45  88 W9        29.56R
CHARLEVOIX     CLOUDY    37  37 100 NW7       29.58R FOG     WCI  32
FRANKFORT      CLOUDY    38  38 100 NW3       29.63R FOG
GAYLORD        FOG       45  41  86 W16       29.52R VSB 1/4
GRAYLING       CLOUDY    49  48  93 W13G22    29.54R FOG
HARBOR SPRINGS LGT RAIN  34  34 100 CALM      29.54R VSB 3/4
HOUGHTON LAKE  CLOUDY    50  45  83 W13G22    29.53R
MANISTEE       LGT RAIN  38  38 100 NW9       29.63R VSB 1   WCI  31
OSCODA         MOCLDY    52  50  93 SW9G18    29.49S FOG
PELLSTON       LGT RAIN  40  38  93 NW12      29.54R FOG     WCI  33
ROGERS CITY    FOG       39  38  96 CALM      29.50S VSB 1/4
TRAVERSE CITY  CLOUDY    41  39  93 NW13      29.59R FOG
$$
MIZ007>008-015-231100-
EASTERN UPPER MICHIGAN

CITY           SKY/WX    TMP DP  RH WIND       PRES   REMARKS
KINROSS        FOG       36  36 100 NW12      29.52F VSB 1/4 WCI  28
MACKINAC ISLAN FOG       37  37 100 NW8       29.52S VSB 3/4 WCI  31
S. S. MARIE    FOG       37  36  96 NW6       29.52F VSB 1/4 WCI  32
MUNISING         N/A     33  33 100 NW15      29.66R WCI  23
$$
MIZ004>006-011>014-085-231100-
CENTRAL UPPER MICHIGAN

CITY           SKY/WX    TMP DP  RH WIND       PRES   REMARKS
MANISTIQUE     LGT SNOW  33  33  98 N14       29.59R WCI  24
ESCANABA       CLOUDY    35  32  88 NW9G18    29.66R WCI  28
MENOMINEE      CLOUDY    38  33  82 N12       29.67R WCI  30
SAWYER-GWINN   LGT SNOW  32  30  94 N14G23    29.68R WCI  22
$$
MIZ001>003-009>011-084-231100-
WESTERN UPPER MICHIGAN

CITY           SKY/WX    TMP DP  RH WIND       PRES   REMARKS
IRON MOUNTAIN  CLOUDY    34  29  82 NW12      29.69R WCI  25
HOUGHTON       CLOUDY    31  24  75 N12G20    29.75R WCI  22
COPPER HARBOR    N/A     34  28  79 NE21      29.74R WCI  22
IRONWOOD       LGT SNOW  31  31 100 N9        29.81R FOG     WCI  23
$$

ABBREVIATIONS USED IN REMARKS
   TC - TEMPERATURE IN CELSIUS
  WCI - WIND CHILL INDEX
   HX - HEAT INDEX
  VSB - VISIBILITY





USA.gov is the U.S. government's official web portal to all federal, state and local government web resources and services.